• In Uzbekistan
  • List of Countries
  • For 7 days
  • Water Temperature
  • Satellite Maps
  • Weather Map
  • Weather Widgets
  • user-avatar
    Login

    Hourly Weather Sevan

    Today, 22 August, Tuesday

    Time Temperature Precipitation Wind Pressure Humidity
    00:00 +20°C° 0 mm 2 mps 641 mmHg 66%
    01:00 +19°C° 0 mm 2 mps 641 mmHg 66%
    02:00 +19°C° 0 mm 2 mps 641 mmHg 67%
    03:00 +19°C° 0 mm 2 mps 641 mmHg 63%
    04:00 +19°C° 0 mm 2 mps 641 mmHg 62%
    05:00 +19°C° 0 mm 2 mps 641 mmHg 61%
    06:00 +20°C° 0 mm 1 mps 641 mmHg 60%
    07:00 +23°C° 0 mm 1 mps 642 mmHg 51%
    08:00 +25°C° 0 mm 1 mps 642 mmHg 42%
    09:00 +28°C° 0 mm 2 mps 643 mmHg 34%
    10:00 +29°C° 0 mm 2 mps 643 mmHg 31%
    11:00 +30°C° 0 mm 2 mps 643 mmHg 28%
    12:00 +32°C° 0 mm 2 mps 643 mmHg 25%
    13:00 +32°C° 0 mm 2 mps 643 mmHg 25%
    14:00 +32°C° 0 mm 2 mps 643 mmHg 24%
    15:00 +34°C° 0 mm 2 mps 642 mmHg 24%
    16:00 +31°C° 0 mm 2 mps 642 mmHg 28%
    17:00 +30°C° 0 mm 2 mps 641 mmHg 33%
    18:00 +29°C° 0 mm 2 mps 641 mmHg 37%
    19:00 +27°C° 0 mm 2 mps 641 mmHg 44%
    20:00 +25°C° 0 mm 2 mps 641 mmHg 50%
    21:00 +22°C° 0 mm 3 mps 641 mmHg 56%
    22:00 +21°C° 0 mm 3 mps 641 mmHg 57%
    23:00 +21°C° 0 mm 3 mps 641 mmHg 58%

    Tomorrow, 23 August, Wednesday

    Time Temperature Precipitation Wind Pressure Humidity
    00:00 +20°C° 0 mm 3 mps 641 mmHg 58%
    01:00 +20°C° 0 mm 3 mps 641 mmHg 58%
    02:00 +19°C° 0 mm 2 mps 641 mmHg 59%
    03:00 +19°C° 0 mm 2 mps 640 mmHg 59%
    04:00 +19°C° 0 mm 2 mps 641 mmHg 59%
    05:00 +19°C° 0 mm 2 mps 641 mmHg 59%
    06:00 +19°C° 0 mm 2 mps 641 mmHg 60%
    07:00 +21°C° 0 mm 2 mps 642 mmHg 52%
    08:00 +25°C° 0 mm 2 mps 642 mmHg 45%
    09:00 +27°C° 0 mm 2 mps 643 mmHg 37%
    10:00 +29°C° 0 mm 2 mps 643 mmHg 34%
    11:00 +30°C° 0 mm 2 mps 643 mmHg 30%
    12:00 +31°C° 0 mm 3 mps 643 mmHg 27%
    13:00 +33°C° 0 mm 3 mps 643 mmHg 26%
    14:00 +33°C° 0 mm 3 mps 643 mmHg 26%
    15:00 +33°C° 0 mm 3 mps 643 mmHg 26%
    16:00 +31°C° 0 mm 3 mps 643 mmHg 30%
    17:00 +29°C° 0 mm 3 mps 643 mmHg 35%
    18:00 +28°C° 0 mm 3 mps 642 mmHg 40%
    19:00 +26°C° 0 mm 3 mps 643 mmHg 43%
    20:00 +23°C° 0 mm 4 mps 643 mmHg 46%
    21:00 +21°C° 0 mm 4 mps 643 mmHg 49%
    22:00 +20°C° 0 mm 3 mps 643 mmHg 49%
    23:00 +20°C° 0 mm 3 mps 643 mmHg 49%

    Day after tomorrow, 24 August, Thursday

    Time Temperature Precipitation Wind Pressure Humidity
    00:00 +19°C° 0 mm 3 mps 643 mmHg 50%
    01:00 +18°C° 0 mm 3 mps 643 mmHg 52%
    02:00 +18°C° 0 mm 3 mps 643 mmHg 54%
    03:00 +18°C° 0 mm 2 mps 642 mmHg 56%
    04:00 +17°C° 0 mm 2 mps 643 mmHg 57%
    05:00 +17°C° 0 mm 2 mps 643 mmHg 59%
    06:00 +17°C° 0 mm 2 mps 643 mmHg 60%
    07:00 +20°C° 0 mm 2 mps 643 mmHg 54%
    08:00 +23°C° 0 mm 2 mps 644 mmHg 47%
    09:00 +26°C° 0 mm 2 mps 645 mmHg 40%
    10:00 +27°C° 0 mm 2 mps 645 mmHg 36%
    11:00 +29°C° 0 mm 2 mps 645 mmHg 32%
    12:00 +30°C° 0 mm 2 mps 645 mmHg 29%
    13:00 +31°C° 0 mm 3 mps 645 mmHg 28%
    14:00 +31°C° 0 mm 3 mps 645 mmHg 27%
    15:00 +31°C° 0 mm 3 mps 645 mmHg 27%
    16:00 +30°C° 0 mm 3 mps 644 mmHg 30%
    17:00 +29°C° 0 mm 3 mps 644 mmHg 34%
    18:00 +28°C° 0 mm 3 mps 644 mmHg 37%
    19:00 +26°C° 0 mm 3 mps 644 mmHg 39%
    20:00 +24°C° 0 mm 3 mps 644 mmHg 41%
    21:00 +21°C° 0 mm 3 mps 644 mmHg 43%
    22:00 +20°C° 0 mm 3 mps 644 mmHg 44%
    23:00 +20°C° 0 mm 3 mps 644 mmHg 44%

    25 August, Friday

    Time Temperature Precipitation Wind Pressure Humidity
    00:00 +19°C° 0 mm 3 mps 644 mmHg 44%
    01:00 +18°C° 0 mm 3 mps 644 mmHg 46%
    02:00 +18°C° 0 mm 3 mps 644 mmHg 48%
    03:00 +17°C° 0 mm 2 mps 644 mmHg 50%
    04:00 +17°C° 0 mm 2 mps 644 mmHg 51%
    05:00 +17°C° 0 mm 2 mps 644 mmHg 53%
    06:00 +17°C° 0 mm 2 mps 644 mmHg 54%
    07:00 +19°C° 0 mm 2 mps 644 mmHg 48%
    08:00 +23°C° 0 mm 2 mps 645 mmHg 42%
    09:00 +26°C° 0 mm 2 mps 646 mmHg 35%
    10:00 +27°C° 0 mm 2 mps 646 mmHg 32%
    11:00 +29°C° 0 mm 2 mps 646 mmHg 29%
    12:00 +30°C° 0 mm 2 mps 646 mmHg 26%
    13:00 +30°C° 0 mm 2 mps 645 mmHg 26%
    14:00 +31°C° 0 mm 3 mps 645 mmHg 25%
    15:00 +31°C° 0 mm 3 mps 645 mmHg 24%
    16:00 +30°C° 0 mm 3 mps 644 mmHg 27%
    17:00 +28°C° 0 mm 3 mps 644 mmHg 30%
    18:00 +27°C° 0 mm 3 mps 644 mmHg 33%
    19:00 +25°C° 0 mm 3 mps 644 mmHg 34%
    20:00 +22°C° 0 mm 3 mps 644 mmHg 36%
    21:00 +20°C° 0 mm 3 mps 644 mmHg 37%
    22:00 +19°C° 0 mm 3 mps 644 mmHg 37%
    23:00 +19°C° 0 mm 3 mps 643 mmHg 36%

    26 August, Saturday

    Time Temperature Precipitation Wind Pressure Humidity
    00:00 +18°C° 0 mm 3 mps 643 mmHg 36%
    01:00 +18°C° 0 mm 3 mps 643 mmHg 36%
    02:00 +17°C° 0 mm 3 mps 643 mmHg 37%
    03:00 +16°C° 0 mm 3 mps 643 mmHg 38%
    04:00 +16°C° 0 mm 3 mps 643 mmHg 39%
    05:00 +16°C° 0 mm 2 mps 643 mmHg 40%
    06:00 +16°C° 0 mm 2 mps 643 mmHg 41%
    07:00 +18°C° 0 mm 2 mps 643 mmHg 37%
    08:00 +21°C° 0 mm 2 mps 644 mmHg 33%
    09:00 +24°C° 0 mm 2 mps 645 mmHg 29%
    10:00 +26°C° 0 mm 2 mps 645 mmHg 27%
    11:00 +27°C° 0 mm 2 mps 644 mmHg 25%
    12:00 +28°C° 0 mm 2 mps 644 mmHg 23%
    13:00 +29°C° 0 mm 2 mps 644 mmHg 23%
    14:00 +29°C° 0 mm 3 mps 644 mmHg 23%
    15:00 +30°C° 0 mm 3 mps 644 mmHg 23%
    16:00 +28°C° 0 mm 3 mps 643 mmHg 26%
    17:00 +27°C° 0 mm 3 mps 643 mmHg 29%
    18:00 +26°C° 0 mm 3 mps 643 mmHg 32%
    19:00 +24°C° 0 mm 3 mps 643 mmHg 35%
    20:00 +21°C° 0 mm 3 mps 643 mmHg 37%
    21:00 +19°C° 0 mm 3 mps 643 mmHg 39%
    22:00 +18°C° 0 mm 3 mps 643 mmHg 39%
    23:00 +18°C° 0 mm 3 mps 643 mmHg 39%

    27 August, Sunday

    Time Temperature Precipitation Wind Pressure Humidity
    00:00 +17°C° 0 mm 3 mps 642 mmHg 39%
    01:00 +17°C° 0 mm 3 mps 642 mmHg 41%
    02:00 +16°C° 0 mm 2 mps 642 mmHg 42%
    03:00 +16°C° 0 mm 2 mps 642 mmHg 44%
    04:00 +15°C° 0 mm 2 mps 642 mmHg 45%
    05:00 +15°C° 0 mm 2 mps 642 mmHg 45%
    06:00 +15°C° 0 mm 2 mps 642 mmHg 46%
    07:00 +18°C° 0 mm 2 mps 642 mmHg 40%
    08:00 +20°C° 0 mm 2 mps 643 mmHg 34%
    09:00 +24°C° 0 mm 2 mps 644 mmHg 29%
    10:00 +25°C° 0 mm 2 mps 644 mmHg 27%
    11:00 +27°C° 0 mm 2 mps 643 mmHg 25%
    12:00 +28°C° 0 mm 2 mps 643 mmHg 23%
    13:00 +28°C° 0 mm 2 mps 643 mmHg 23%
    14:00 +29°C° 0 mm 2 mps 643 mmHg 23%
    15:00 +29°C° 0 mm 2 mps 643 mmHg 23%
    16:00 +28°C° 0 mm 2 mps 642 mmHg 26%
    17:00 +27°C° 0 mm 2 mps 642 mmHg 29%
    18:00 +26°C° 0 mm 2 mps 642 mmHg 32%
    19:00 +24°C° 0 mm 3 mps 642 mmHg 35%
    20:00 +21°C° 0 mm 3 mps 642 mmHg 38%
    21:00 +19°C° 0 mm 3 mps 642 mmHg 41%
    22:00 +18°C° 0 mm 3 mps 642 mmHg 42%
    23:00 +18°C° 0 mm 3 mps 642 mmHg 43%
    Show more